COSMOS 1275 DEB, 12757

Orbit data source: Space-Track

COSMOS 1275 DEB, 12757 is space debris in LEO originally from a launch on Thu, 04 Jun 1981 UTC launched from the Plesetsk Missile And Space Complex (PKMTR). Debris objects in space refer to the collection of defunct objects orbiting the Earth. Examples of debris include non-operational satellites, rocket bodies, and fragments generated from explosions, collisions, or faulty payload assembly.

Loading next visibility...
Identifier
12757, 1981-053DA
Orbit
LEO
Country
Flag of CISCIS
Related business
Manufacturer
Unknown
Mission
Spacecraft
Bus & Motor
Unknown
Mass
Unknown
Launch date (UTC)
1981-06-04 (45 years ago)
Launch vehicle
Unknown
Launch site
Plesetsk Missile And Space Complex (PKMTR)
Object type
Payload
Rocket body
Debris
Shape & HBR
Unknown shape, 0.1 m
Radar Cross Section
Medium (>0.1 m² and <1 m²)

Expand to show TLE details & history
Last TLE update: 8 hours ago

TLE from 8 hours ago
0 COSMOS 1275 DEB
1 12757U 81053DA  26150.17576251  .00000526  00000-0  45814-3 0  9995
2 12757  82.9492 228.4650 0060110  82.5690 305.6820 13.83362837250929
Epoch: 2026-05-30T04:13Z
TLE epoch observation values (Epoch: 2026-05-30T04:13:05.880Z)
Latitude
27.50156°
Longitude
-78.83254°
Altitude
929.826 km
Speed
7.402 km/s
True Right ascension
15h 28m 33s
True Declination
27° 21' 51"
Sunlit
Object was in full shadow at epoch
Visualization orbit readout
Latitude
Unknown
Longitude
Unknown
Altitude
Unknown
Speed
Unknown
Apparent Right ascension
Unknown
Apparent Declination
Unknown
Sunlit
N/A
Visualization observer readout
Local Sidereal Time
21:57:46
Azimuth
Unknown
Elevation
Unknown
Doppler factor
Unknown
Orbital elements
Apogee altitude
993.164 km
Perigee altitude
905.076 km
Semi-major axis
7,327.257 km
Eccentricity
0.00601
Inclination
82.9492°
RAAN
228.465°
Arg. of periapsis
82.569°
True anomaly
305.12005°
Mean anomaly
305.682°
Eccentric anomaly
305.40127°
Mean motion
3.46044 °/min
Orbital period
104.03 mins
BSTAR
0.00045814
Loading maneuver chart data...
Computing Atmospheric mass density...
Loading historical data...
Loading historical data...
Loading historical data...
Loading historical data...
Loading historical data...
Loading historical data...
Loading historical data...

Documentation

Showing up to 5 results
|